Regional Weather Roundup
Issued by NWS

Home | Current Version | Previous Version | Text Only | Print | Product List | Glossary On
Versions: 1 2 3 4 5 6 7 8 9 10 11 12 13 14 15 16 17 18 19 20 21 22 23 24 25 26 27 28 29 30 31 32 33 34 35 36 37 38 39 40 41 42 43 44 45 46 47 48 49 50
000
ASUS42 KTBW 020020
RWRFL
FLORIDA REGIONAL WEATHER ROUNDUP
NATIONAL WEATHER SERVICE TAMPA BAY RUSKIN FL
800 PM EDT TUE SEP 01 2015

NOTE: "FAIR" INDICATES FEW OR NO CLOUDS BELOW 12,000 FEET WITH NO
SIGNIFICANT WEATHER AND/OR OBSTRUCTIONS TO VISIBILITY.


FLZ001>010-012>015-112-114-115-020100-
PANHANDLE FLORIDA

CITY           SKY/WX    TMP DP  RH WIND       PRES   REMARKS
PENSACOLA      PTCLDY    85  69  58 SW8       30.01F
PENSACOLA NAS  MOCLDY    83  71  67 SW3       30.01F
MILTON NAS     MOCLDY    85  69  58 S8        30.02
CRESTVIEW      PTCLDY    87  74  64 CALM      30.02F HX  95
DUKE FIELD     PTCLDY    88  70  55 W3        30.01S
VALPARAISO     MOCLDY    87  71  60 W3        30.01S
MARY ESTHER    PTCLDY    86  70  59 W3        30.00S
TRI COUNTY     FAIR      82  72  71 CALM      30.02R
PANAMA CITY    MOCLDY    84  73  69 S7        30.00S
TYNDALL AFB    MOCLDY    84  77  79 S9        30.01R
APALACHICOLA   PTCLDY    78  76  93 E3        30.00S

STATION/POSITION SKY/WX   TEMP    WIND        PRES    WAVE   SWELL
                          AIR SEA DIR/SP/G            HT/PER HT/PER
                          (F)     (DEG/KT/KT) (MB)    (FT/S) (FT/S)
30.1N   87.6W              86 87  230/  6/  8 1016.0F   1/ 5   2/ 5
29.2N   88.2W              84 87   90/  6/  8 1017.0F   2/ 6   2/ 6
28.8N   86.0W              83 86   90/  6/  8 1016.6R   3/ 4   2/ 4
PANAMA CITY BEAC           86 86  230/  8/ 10 1016.1F
CAPE SAN BLAS    NOT AVBL
TOWER C                    80      80/ 13/ 14 1015.8F
28.5N   84.5W              81 86  350/  2/  4 1015.9F   2/ 6   2/ 6

$$
FLZ011-016>038-118-127-128-134-139-239-020100-
NORTH FLORIDA

CITY           SKY/WX    TMP DP  RH WIND       PRES   REMARKS
MARIANNA       PTCLDY    87  70  56 E5        30.00S
TALLAHASSEE    MOCLDY    82  74  76 NE6       30.01F
PERRY          LGT RAIN  79  77  92 CALM      30.03S
CROSS CITY       N/A     79  76  90 CALM      30.02S
LAKE CITY      FAIR      79  77  94 CALM      30.05R
GAINESVILLE    MOCLDY    80  73  79 SW5       30.04R
MAYPORT NAS    CLOUDY    83  76  79 S5        30.04R
JACKSONVILLE   CLOUDY    81  78  91 NE8       30.04R THUNDER
JAX NAS        CLOUDY    85  77  77 NW5       30.05R THUNDER HX  95
JAX CRAIG      CLOUDY    83  75  77 CALM      30.04R
JAX CECIL      CLEAR     81  75  83 CALM      30.05S
FERNANDINA BEA FAIR      84  79  84 NE3       30.04R HX  96
ST AUGUSTINE   MOCLDY    82  77  84 CALM      30.05R

STATION/POSITION SKY/WX   TEMP    WIND        PRES    WAVE   SWELL
                          AIR SEA DIR/SP/G            HT/PER HT/PER
                          (F)     (DEG/KT/KT) (MB)    (FT/S) (FT/S)
SHELL POINT                78      10/  5/  7   N/A
KEATON BEACH               79      70/  3/  4 1016.6R
CEDAR KEY                  82     180/  8/  9 1017.0F
FERNANDINA                 82 86   70/  4/  5 1017.0R
30.7N   81.3W                 86                N/A     2/ 9
MAYPORT                    84 86  160/  2/  4 1017.4R
31.4N   80.9W              81 84   90/  6/  8 1017.9F   2/ 8   2/ 8
ST AUGUSTINE               83 85  140/  9/ 10 1018.2R

$$
FLZ040-043>046-052-053-057-058-063-144-020100-
INTERIOR CENTRAL FLORIDA

CITY           SKY/WX    TMP DP  RH WIND       PRES   REMARKS
OCALA          MOCLDY    79  73  83 CALM      30.04S
THE VILLAGES     N/A     82  75  78 CALM      29.94S
LEESBURG       MOCLDY    81  77  88 CALM      30.05S
SANFORD        MOCLDY    84  73  69 NE3       30.05R
ORLANDO EXEC   MOCLDY    85  75  72 NW5       30.05R
ORLANDO INTL   MOCLDY    83  74  74 CALM      30.05R
KISSIMMEE      PTCLDY    82  75  78 CALM      30.06R
WINTER HAVEN   CLOUDY    81  75  82 CALM      30.07R
LAKELAND       CLEAR    N/A N/A N/A N5        30.06R
BARTOW         FAIR      79  79 100 CALM      30.07R
OKEECHOBEE     PTCLDY    82  75  78 E3        30.05S THUNDER

$$
FLZ041-047-054-059-064-141-147-020100-
EAST CENTRAL FLORIDA

CITY           SKY/WX    TMP DP  RH WIND       PRES   REMARKS
DAYTONA BEACH  CLOUDY    81  77  88 CALM      30.05S
DELAND           N/A     82  77  83 CALM      30.07R
NEW SMYRNA BEA PTCLDY    84  73  70 E7        30.05S
TITUSVILLE     PTCLDY    82  75  78 SE10      30.05S
CAPE CANAVERAL MOCLDY    84  75  75 SE8       30.04R
PATRICK AFB    MOCLDY    84  79  85 SE13      30.05R HX  97
MELBOURNE      MOCLDY    85  76  74 SE12      30.05R
VERO BEACH     PTCLDY    85  75  72 SE8       30.06R
FT PIERCE      PTCLDY    85  76  74 SE8       30.05S
STUART         CLEAR     81  73  78 SE6       30.07F THUNDER

STATION/POSITION SKY/WX   TEMP    WIND        PRES    WAVE   SWELL
                          AIR SEA DIR/SP/G            HT/PER HT/PER
                          (F)     (DEG/KT/KT) (MB)    (FT/S) (FT/S)
28.5N   80.2W              85 86  120/  8/ 10 1018.0R
28.9N   78.5W              85 87   CALM  /  2 1018.6R
TRIDENT PIER               84 87  120/  5/  8 1018.1R
28.4N   80.5W                 86                N/A     2/11
27.5N   80.2W                 85                N/A     2/ 9

$$
FLZ050-056-061-142-242-148-248-149-249-151-251-155-255-
160-260-020100-
WEST CENTRAL FLORIDA

CITY           SKY/WX    TMP DP  RH WIND       PRES   REMARKS
CRYSTAL RIVER  FAIR      79  75  89 CALM      30.04R
INVERNESS      FAIR      79  79 100 CALM      30.04S
BROOKSVILLE    MOCLDY    80  76  87 S3        30.05S
CLEARWATER     MOCLDY    81  76  84 SE5       30.04R
TAMPA INTL     CLOUDY    83  73  72 S3        30.05R
TAMPA EXEC     MOCLDY    84  77  79 CALM      30.05R
PLANT CITY     MOCLDY    82  79  89 SE3       30.07S
MACDILL AFB    MOCLDY    82  78  86 S3        30.04S
PETER O KNIGHT MOCLDY    84  77  79 SW3       30.05R
ST PETERSBURG  MOCLDY    83  75  77 SW5       30.03R
SARASOTA       MOCLDY    82  76  81 NW5       30.04R
VENICE         FAIR      84  77  79 NW5       30.05R

STATION/POSITION SKY/WX   TEMP    WIND        PRES    WAVE   SWELL
                          AIR SEA DIR/SP/G            HT/PER HT/PER
                          (F)     (DEG/KT/KT) (MB)    (FT/S) (FT/S)
CEDAR KEY                  82     180/  8/  9 1017.0F
28.5N   84.5W              81 86  350/  2/  4 1015.9F   2/ 6   2/ 6
27.3N   84.2W                 86                N/A     2/ 6
CLEARWATER BEACH           83 85  160/  5/  7 1016.9F
MIDDLE TAMPA BAY                  300/  4/  5 1017.4F
VENICE                     83 88  310/  5/  5 1017.0R

$$
FLZ066-069-070-075>078-162-262-165-265-020100-
SOUTHWEST FLORIDA AND KEYS

CITY           SKY/WX    TMP DP  RH WIND       PRES   REMARKS
PUNTA GORDA    MOCLDY    83  78  85 NW3       30.06R
FT MYERS       MOCLDY    86  74  67 NW7       30.03S
SOUTHWEST INTL CLOUDY    86  76  71 W3        30.04S HX  96
NAPLES         CLOUDY    87  76  69 N3        30.04S HX  97
MARCO ISLAND   MOCLDY    86  73  66 NE10G17   30.05R
MARATHON       CLEAR     86  77  74 E5        30.03R HX  97
KEY WEST NAS   PTCLDY    86  76  71 E9        30.03R HX  96
KEY WEST INTL  CLEAR     86  77  74 E7        30.03R HX  97

STATION/POSITION SKY/WX   TEMP    WIND        PRES    WAVE   SWELL
                          AIR SEA DIR/SP/G            HT/PER HT/PER
                          (F)     (DEG/KT/KT) (MB)    (FT/S) (FT/S)
VENICE                     83 88  310/  5/  5 1017.0R
NAPLES                        88              1018.2R
26.0N   85.6W              83 87  340/  4/  6 1016.3R   2/ 5   2/ 5
DRY TORTUGAS                                    N/A
NW FL BAY                  87      80/  6/  7 1016.7
SAND KEY                   86      80/ 10     1016.5S
LONG KEY                   85 87   90/  7/  8 1017.8R
MOLASSES REEF              85 87   90/  7/  8 1017.3R

$$
FLZ067-068-071>074-168-172>174-020100-
SOUTHEAST FLORIDA

CITY           SKY/WX    TMP DP  RH WIND       PRES   REMARKS
W PALM BEACH   PTCLDY    84  74  71 E9        30.05F
FT LAUDER-EXEC PTCLDY    86  75  69 E7        30.05S HX  95
FT LAUDERDALE  PTCLDY    84  76  76 SE6       30.05R
POMPANO BEACH  CLEAR     86  76  71 E6        30.05S HX  96
PEMBROKE PINES CLOUDY    83  74  74 NW3       30.06S
OPA LOCKA      MOCLDY    83  74  74 NW5       30.06R
MIAMI          MOCLDY    84  72  67 N3        30.06R
WEST KENDALL   CLEAR     81  72  74 N8        30.05S
HOMESTEAD      CLEAR     84  77  80 NE6       30.04S

STATION/POSITION SKY/WX   TEMP    WIND        PRES    WAVE   SWELL
                          AIR SEA DIR/SP/G            HT/PER HT/PER
                          (F)     (DEG/KT/KT) (MB)    (FT/S) (FT/S)
PORT EVERGLADES            86     130/  5/  7 1017.7R
VIRGINIA KEY               85 87  110/  5/  7 1017.1F
LAKE WORTH                 85 88  130/  7/  9 1017.8R
SETTLEMENT POINT           85      60/  7/  8 1018.8R

$$




USA.gov is the U.S. government's official web portal to all federal, state and local government web resources and services.